Flag for Germany Weather past 2 weeks in Oelde, North Rhine-Westphalia, Germany

Now
55 °F

Rain. Fog.


Feels Like: 55 °F
Forecast: 53 / 68 °F
Wind: 3 mph from Northwest

Location: Paderborn / Lippstadt

Current Time: Aug 27, 2015 at 9:39:11 PM

Latest Report: Aug 27, 2015 at 9:20 PM


Visibility: 2 mi

Pressure: 29.89 "Hg

Humidity: 100%

Dew point: 55 °F

Location of OeldeLocation

Historic Weather in Oelde — Graph

°F

Oelde temperature yesterday

Maximum temperature yesterday: 77 °F (at 3:50 PM)
Minimum temperature yesterday: 61 °F (at 2:50 AM)
Average temperature yesterday: 69 °F

Past Weeks' High & Low Weather Summary

 TemperatureHumidityPressure
High84 °F (Aug 13, 4:50 PM)100% (Aug 16, 11:50 AM)30.27 "Hg (Aug 16, 11:50 AM)
Low50 °F (Aug 19, 6:50 AM)31% (Aug 22, 3:20 PM)29.59 "Hg (Aug 24, 4:20 PM)
Average64 °F70%29.96 "Hg
* Reported Aug 12 7:20 PM — Aug 27 7:50 PM, Oelde, Weather by CustomWeather, © 2015

Note: Actual official high and low records may vary slightly from our data, if they occured in-between our weather recording intervals... More about our weather records

Advertising

Oelde weather history for previous 24 hours

 ConditionsComfort  
Time TempWeatherWind HumidityBarometerVisibility
7:50 PM
Thu, Aug 27
55 °FRain. Fog.6 mph100%29.86 "Hg1 mi
7:20 PM57 °FRain. Fog.6 mph94%29.86 "Hg1 mi
6:50 PM57 °FRain. Partly sunny.3 mph94%29.86 "Hg2 mi
6:20 PM57 °FRain. Partly sunny.5 mph94%29.86 "Hg2 mi
5:50 PM57 °FRain. Partly sunny.5 mph94%29.86 "Hg2 mi
5:20 PM57 °FRain. Broken clouds.5 mph94%29.86 "Hg2 mi
4:50 PM57 °FRain. Partly sunny.6 mph94%29.86 "Hg2 mi
4:20 PM59 °FRain. Partly sunny.5 mph88%29.86 "Hg5 mi
3:50 PM61 °FRain. Partly sunny.5 mph88%29.86 "Hg5 mi
3:20 PM63 °FLight rain. Scattered clouds.8 mph77%29.86 "HgN/A
2:50 PM63 °FLight rain. Passing clouds.8 mph77%29.86 "HgN/A
2:20 PM63 °FSunny.8 mph73%29.86 "Hg10 mi
1:50 PM64 °FPassing clouds.9 mph68%29.86 "HgN/A
1:20 PM64 °FSunny.6 mph64%29.86 "Hg10 mi
12:50 PM64 °FSunny.10 mph64%29.89 "Hg10 mi
12:20 PM64 °FScattered clouds.12 mph64%29.89 "HgN/A
11:50 AM66 °FScattered clouds.9 mph64%29.89 "HgN/A
11:20 AM64 °FScattered clouds.8 mph73%29.89 "HgN/A
10:50 AM66 °FScattered clouds.6 mph60%29.86 "HgN/A
10:20 AM66 °FPassing clouds.12 mph56%29.86 "HgN/A
9:50 AM68 °FScattered showers. Passing clouds.14 mph53%29.86 "HgN/A
9:20 AM68 °FSunny.13 mph60%29.86 "Hg10 mi
8:50 AM68 °FSunny.10 mph60%29.86 "Hg10 mi
8:20 AM68 °FSunny.9 mph64%29.83 "Hg10 mi
7:50 AM68 °FSunny.10 mph60%29.83 "Hg10 mi
7:20 AM68 °FClear.6 mph56%29.80 "Hg10 mi
6:50 AM68 °FClear.8 mph56%29.80 "Hg10 mi
6:20 AM68 °FClear.10 mph56%29.83 "Hg10 mi
5:50 AM70 °FPassing clouds.8 mph50%29.80 "HgN/A
5:20 AM70 °FClear.8 mph50%29.80 "Hg10 mi
4:50 AM72 °FClear.10 mph47%29.80 "Hg10 mi
4:20 AM72 °FClear.9 mph44%29.80 "Hg10 mi
3:50 AM72 °FClear.14 mph44%29.80 "Hg10 mi
3:20 AM72 °FClear.14 mph44%29.80 "Hg10 mi
2:50 AM73 °FClear.12 mph41%29.80 "Hg10 mi
1:20 AM72 °FClear.18 mph44%29.80 "Hg10 mi
12:50 AM72 °FClear.16 mph47%29.83 "Hg10 mi
11:50 PM
Wed, Aug 26
72 °FClear.12 mph47%29.83 "Hg10 mi
11:20 PM72 °FClear.12 mph47%29.83 "Hg10 mi
10:50 PM70 °FClear.12 mph50%29.86 "Hg10 mi
10:20 PM72 °FClear.14 mph47%29.86 "Hg10 mi
9:50 PM72 °FClear.16 mph47%29.86 "Hg10 mi
9:20 PM72 °FSunny.14 mph47%29.86 "Hg10 mi
Weather by CustomWeather, © 2015

See weather overviewHow to use our weather pages